TimeCST,TemperatureF,Dew PointF,Humidity,Sea Level PressureIn,VisibilityMPH,Wind Direction,Wind SpeedMPH,Gust SpeedMPH,PrecipitationIn,Events,Conditions,WindDirDegrees,DateUTC
12:15 AM,44.6,42.8,93,29.90,10.0,Calm,Calm,-,N/A,,Clear,0,2012-12-07 06:15:00
12:35 AM,44.6,42.8,93,29.89,10.0,Calm,Calm,-,N/A,,Clear,0,2012-12-07 06:35:00
12:55 AM,44.6,42.8,93,29.89,7.0,Calm,Calm,-,N/A,,Clear,0,2012-12-07 06:55:00
1:15 AM,44.6,42.8,93,29.89,7.0,Calm,Calm,-,N/A,,Clear,0,2012-12-07 07:15:00
1:35 AM,44.6,42.8,93,29.89,7.0,Calm,Calm,-,N/A,,Clear,0,2012-12-07 07:35:00
1:55 AM,44.6,42.8,93,29.89,7.0,Calm,Calm,-,N/A,,Scattered Clouds,0,2012-12-07 07:55:00
2:15 AM,44.6,42.8,93,29.89,7.0,Calm,Calm,-,N/A,,Mostly Cloudy,0,2012-12-07 08:15:00
2:35 AM,46.4,44.6,93,29.89,7.0,Calm,Calm,-,N/A,,Mostly Cloudy,0,2012-12-07 08:35:00
2:55 AM,46.4,44.6,93,29.89,7.0,Calm,Calm,-,N/A,,Mostly Cloudy,0,2012-12-07 08:55:00
3:15 AM,46.4,44.6,93,29.87,7.0,Calm,Calm,-,N/A,,Overcast,0,2012-12-07 09:15:00
3:35 AM,46.4,44.6,93,29.87,7.0,Calm,Calm,-,N/A,,Overcast,0,2012-12-07 09:35:00
3:55 AM,46.4,44.6,93,29.87,7.0,Calm,Calm,-,N/A,,Overcast,0,2012-12-07 09:55:00
4:15 AM,46.4,46.4,100,29.86,7.0,Calm,Calm,-,N/A,,Overcast,0,2012-12-07 10:15:00
4:35 AM,48.2,46.4,93,29.86,7.0,Calm,Calm,-,N/A,,Mostly Cloudy,0,2012-12-07 10:35:00
4:55 AM,48.2,46.4,93,29.85,7.0,ESE,3.5,-,N/A,,Mostly Cloudy,110,2012-12-07 10:55:00
5:15 AM,48.2,46.4,93,29.86,7.0,Calm,Calm,-,N/A,,Mostly Cloudy,0,2012-12-07 11:15:00
5:35 AM,48.2,46.4,93,29.86,7.0,Calm,Calm,-,N/A,,Mostly Cloudy,0,2012-12-07 11:35:00
5:55 AM,48.2,46.4,93,29.87,7.0,Calm,Calm,-,N/A,,Mostly Cloudy,0,2012-12-07 11:55:00
6:15 AM,48.2,46.4,93,29.87,7.0,Calm,Calm,-,N/A,,Overcast,0,2012-12-07 12:15:00
6:35 AM,48.2,46.4,93,29.88,7.0,Calm,Calm,-,N/A,,Overcast,0,2012-12-07 12:35:00
6:55 AM,50.0,46.4,87,29.87,7.0,East,3.5,-,N/A,,Overcast,100,2012-12-07 12:55:00
7:15 AM,50.0,46.4,87,29.87,7.0,Calm,Calm,-,N/A,,Overcast,0,2012-12-07 13:15:00
7:35 AM,50.0,48.2,94,29.87,5.0,East,3.5,-,N/A,,Overcast,100,2012-12-07 13:35:00
7:55 AM,50.0,48.2,94,29.88,7.0,Calm,Calm,-,N/A,,Overcast,0,2012-12-07 13:55:00
8:15 AM,51.8,48.2,88,29.89,7.0,Calm,Calm,-,N/A,,Overcast,0,2012-12-07 14:15:00
8:35 AM,51.8,48.2,88,29.89,7.0,Calm,Calm,-,N/A,,Overcast,0,2012-12-07 14:35:00
8:55 AM,51.8,48.2,88,29.89,7.0,Calm,Calm,-,N/A,,Overcast,0,2012-12-07 14:55:00
9:15 AM,51.8,50.0,94,29.89,5.0,Calm,Calm,-,N/A,,Overcast,0,2012-12-07 15:15:00
9:35 AM,51.8,50.0,94,29.89,5.0,Calm,Calm,-,N/A,,Overcast,0,2012-12-07 15:35:00
9:55 AM,51.8,50.0,94,29.89,5.0,Calm,Calm,-,N/A,,Overcast,0,2012-12-07 15:55:00
10:15 AM,53.6,50.0,88,29.89,5.0,SE,3.5,-,N/A,,Overcast,130,2012-12-07 16:15:00
10:35 AM,53.6,50.0,88,29.88,5.0,SE,4.6,-,N/A,,Overcast,130,2012-12-07 16:35:00
10:55 AM,53.6,50.0,88,29.87,5.0,SE,5.8,-,N/A,,Overcast,140,2012-12-07 16:55:00
11:15 AM,53.6,51.8,94,29.87,7.0,Calm,Calm,-,N/A,,Overcast,0,2012-12-07 17:15:00
11:35 AM,53.6,51.8,94,29.86,5.0,SSE,3.5,-,N/A,,Overcast,160,2012-12-07 17:35:00
11:55 AM,53.6,51.8,94,29.86,5.0,Calm,Calm,-,N/A,,Mostly Cloudy,0,2012-12-07 17:55:00
12:15 PM,53.6,51.8,94,29.84,4.0,Calm,Calm,-,N/A,,Overcast,0,2012-12-07 18:15:00
12:35 PM,53.6,51.8,94,29.84,3.0,Calm,Calm,-,N/A,,Overcast,0,2012-12-07 18:35:00
12:55 PM,55.4,51.8,88,29.83,5.0,Calm,Calm,-,N/A,,Overcast,0,2012-12-07 18:55:00
1:15 PM,53.6,51.8,94,29.82,4.0,Calm,Calm,-,N/A,,Overcast,0,2012-12-07 19:15:00
1:35 PM,55.4,51.8,88,29.81,5.0,Calm,Calm,-,N/A,,Overcast,0,2012-12-07 19:35:00
1:55 PM,55.4,51.8,88,29.81,7.0,Calm,Calm,-,N/A,,Overcast,0,2012-12-07 19:55:00
2:15 PM,55.4,51.8,88,29.80,7.0,SSE,3.5,-,N/A,,Overcast,160,2012-12-07 20:15:00
2:35 PM,55.4,51.8,88,29.80,7.0,South,5.8,-,N/A,,Overcast,170,2012-12-07 20:35:00
2:55 PM,57.2,51.8,82,29.80,7.0,Calm,Calm,-,N/A,,Overcast,0,2012-12-07 20:55:00
3:15 PM,55.4,51.8,88,29.81,7.0,South,3.5,-,N/A,,Overcast,170,2012-12-07 21:15:00
3:35 PM,55.4,51.8,88,29.82,7.0,Calm,Calm,-,N/A,,Overcast,0,2012-12-07 21:35:00
3:55 PM,55.4,51.8,88,29.82,7.0,Calm,Calm,-,N/A,,Overcast,0,2012-12-07 21:55:00
4:15 PM,55.4,51.8,88,29.82,7.0,Calm,Calm,-,N/A,,Overcast,0,2012-12-07 22:15:00
4:35 PM,55.4,51.8,88,29.82,10.0,Calm,Calm,-,N/A,,Overcast,0,2012-12-07 22:35:00
4:55 PM,55.4,51.8,88,29.82,10.0,Calm,Calm,-,N/A,,Overcast,0,2012-12-07 22:55:00
5:15 PM,55.4,51.8,88,29.83,10.0,Calm,Calm,-,N/A,,Overcast,0,2012-12-07 23:15:00
5:35 PM,55.4,51.8,88,29.83,10.0,Calm,Calm,-,N/A,,Overcast,0,2012-12-07 23:35:00
5:55 PM,53.6,51.8,94,29.84,7.0,Calm,Calm,-,N/A,,Overcast,0,2012-12-07 23:55:00
6:15 PM,53.6,51.8,94,29.83,7.0,Calm,Calm,-,N/A,,Overcast,0,2012-12-08 00:15:00
6:35 PM,51.8,51.8,100,29.84,7.0,Calm,Calm,-,N/A,,Overcast,0,2012-12-08 00:35:00
6:55 PM,51.8,51.8,100,29.84,7.0,Calm,Calm,-,N/A,,Mostly Cloudy,0,2012-12-08 00:55:00
7:15 PM,53.6,51.8,94,29.84,7.0,Calm,Calm,-,N/A,,Mostly Cloudy,0,2012-12-08 01:15:00
7:35 PM,53.6,51.8,94,29.85,5.0,Calm,Calm,-,N/A,,Overcast,0,2012-12-08 01:35:00
7:55 PM,53.6,51.8,94,29.85,5.0,Calm,Calm,-,N/A,,Overcast,0,2012-12-08 01:55:00
8:15 PM,53.6,51.8,94,29.85,5.0,Calm,Calm,-,N/A,,Overcast,0,2012-12-08 02:15:00
8:35 PM,51.8,51.8,100,29.86,5.0,Calm,Calm,-,N/A,,Mostly Cloudy,0,2012-12-08 02:35:00
8:55 PM,51.8,51.8,100,29.87,5.0,Calm,Calm,-,N/A,,Overcast,0,2012-12-08 02:55:00
9:15 PM,51.8,51.8,100,29.87,5.0,Calm,Calm,-,N/A,,Mostly Cloudy,0,2012-12-08 03:15:00
9:35 PM,51.8,51.8,100,29.87,5.0,Calm,Calm,-,N/A,,Mostly Cloudy,0,2012-12-08 03:35:00
9:55 PM,51.8,51.8,100,29.88,5.0,Calm,Calm,-,N/A,,Mostly Cloudy,0,2012-12-08 03:55:00
10:15 PM,51.8,50.0,94,29.87,4.0,Calm,Calm,-,N/A,,Mostly Cloudy,0,2012-12-08 04:15:00
10:35 PM,51.8,50.0,94,29.88,4.0,Calm,Calm,-,N/A,,Mostly Cloudy,0,2012-12-08 04:35:00
10:55 PM,51.8,51.8,100,29.89,4.0,Calm,Calm,-,N/A,,Mostly Cloudy,0,2012-12-08 04:55:00
11:15 PM,51.8,50.0,94,29.90,4.0,Calm,Calm,-,N/A,,Mostly Cloudy,0,2012-12-08 05:15:00
11:35 PM,51.8,50.0,94,29.90,4.0,Calm,Calm,-,N/A,,Mostly Cloudy,0,2012-12-08 05:35:00
11:55 PM,51.8,51.8,100,29.90,4.0,WNW,3.5,-,N/A,,Mostly Cloudy,300,2012-12-08 05:55:00